Location: Balsareny
(41.8670°N, 1.8830°E)
Time: 15:21:22
(UTC+01:00)

Envisat - Pass Details

Date: 09 December 2021
Orbit: 764 x 766 km, 98.2° (Epoch: 19 January)

Event Time Altitude Azimuth Distance (km) Brightness Sun altitude
Rises 05:06:56 0° 23° (NNE) 3,240 6.5 -32.9°
Reaches altitude 10° 05:09:30 10° 34° (NNE) 2,309 5.8 -32.4°
Maximum altitude 05:14:00 31° 96° (E) 1,318 4.7 -31.6°
Drops below altitude 10° 05:18:28 10° 158° (SSE) 2,293 5.7 -30.8°
Sets 05:21:00 0° 168° (SSE) 3,214 6.4 -30.3°
